FW0150 Weather Reports


time (UTC)temp
C
wind
direction
speed
KPH
gust
KPH
rain 1hr
cm
rain 24hr
cm
rain mn
cm
humidity
%
barometer
mb
20260505041343 11 202 16.1 24.1 0.05 0.13 0.10 91 1015.9
20260505040838 11 216 14.5 22.5 0.05 0.13 0.10 92 1016.0
20260505040330 11 123 9.7 19.3 0.05 0.13 0.10 92 1015.9
20260505035316 11 165 8.0 19.3 0.05 0.08 0.10 92 1015.9
20260505034803 11 149 11.3 19.3 0.05 0.08 0.10 92 1016.0
20260505034301 11 216 6.4 14.5 0.05 0.08 0.08 92 1016.0
20260505033802 11 154 9.7 16.1 0.05 0.08 0.08 91 1016.1
20260505033258 11 142 9.7 17.7 0.05 0.08 0.08 91 1016.1
20260505032757 11 209 8.0 17.7 0.05 0.08 0.05 91 1016.1
20260505032255 11 212 8.0 14.5 0.05 0.08 0.05 91 1016.2
20260505031752 11 176 8.0 16.1 0.05 0.08 0.05 90 1016.2
20260505031251 11 173 9.7 16.1 0.05 0.08 0.05 90 1016.3
20260505030822 11 217 8.0 14.5 0.05 0.08 0.05 90 1016.4
20260505025742 11 186 6.4 11.3 0.05 0.05 0.05 90 1016.5
20260505025251 11 213 6.4 11.3 0.03 0.05 0.05 90 1016.5
20260505024246 11 161 6.4 9.7 0.03 0.05 0.03 90 1016.7
20260505023747 11 231 4.8 11.3 0.03 0.05 0.03 91 1016.7
20260505023237 11 190 6.4 11.3 0.03 0.05 0.03 91 1016.7
20260505022727 11 172 6.4 9.7 0.03 0.05 0.03 91 1016.8
20260505022215 11 202 6.4 8.0 0.03 0.05 0.03 91 1016.8
20260505021730 11 214 6.4 8.0 0.03 0.05 0.03 91 1016.9
20260505021159 11 213 3.2 8.0 0.03 0.05 0.03 90 1016.9
20260505020650 11 203 6.4 9.7 0.03 0.05 0.03 90 1016.9
20260505020209 11 195 6.4 11.3 0.03 0.05 0.03 90 1016.9
20260505015150 11 228 6.4 9.7 0.03 0.03 0.03 89 1017.0
20260505014653 12 203 6.4 11.3 0.00 0.03 0.00 89 1017.0
20260505014154 12 247 3.2 14.5 0.00 0.03 0.00 89 1017.0
20260505013652 12 224 9.7 14.5 0.00 0.03 0.00 89 1017.0
20260505012647 12 206 6.4 17.7 0.00 0.03 0.00 88 1016.9
20260505012125 12 165 8.0 17.7 0.00 0.03 0.00 88 1017.1
20260505011629 12 164 8.0 17.7 0.00 0.03 0.00 87 1017.2
20260505011123 12 214 8.0 17.7 0.00 0.03 0.00 87 1017.3
20260505010621 12 202 8.0 14.5 0.00 0.03 0.00 87 1017.4
20260505010115 12 219 8.0 11.3 0.00 0.03 0.00 87 1017.4
20260505005613 12 162 6.4 9.7 0.00 0.03 0.00 87 1017.4
20260505004559 12 231 3.2 14.5 0.00 0.03 0.00 86 1017.6
20260505004053 12 216 6.4 14.5 0.00 0.03 0.00 85 1017.6
20260505003610 12 176 8.0 11.3 0.00 0.03 0.00 86 1017.5
20260505003102 12 210 8.0 9.7 0.00 0.03 0.00 86 1017.6
20260505002552 12 238 3.2 8.0 0.00 0.03 0.00 86 1017.7
20260505002052 12 221 3.2 4.8 0.00 0.03 0.00 85 1017.7
20260505001546 12 245 1.6 8.0 0.00 0.03 0.00 85 1017.6
20260505001044 12 244 3.2 9.7 0.00 0.03 0.00 84 1017.7
20260505000058 12 183 6.4 9.7 0.00 0.03 0.00 83 1017.7
20260504235042 12 206 6.4 9.7 0.00 0.03 0.00 83 1018.0
20260504234540 12 220 8.0 9.7 0.00 0.03 0.00 83 1018.1
20260504233036 12 162 8.0 14.5 0.00 0.03 0.00 81 1018.2
20260504232538 12 180 8.0 11.3 0.00 0.03 0.00 82 1018.4
20260504232036 12 176 6.4 11.3 0.00 0.03 0.00 82 1018.4
20260504231537 12 173 4.8 9.7 0.00 0.03 0.00 82 1018.6
20260504231027 12 127 6.4 8.0 0.00 0.03 0.00 83 1018.6
20260504230030 12 178 6.4 16.1 0.00 0.03 0.00 82 1018.9
20260504225536 12 206 9.7 16.1 0.00 0.03 0.00 82 1019.0
20260504225036 12 217 6.4 11.3 0.00 0.03 0.00 82 1019.0
20260504224528 12 188 8.0 9.7 0.00 0.03 0.00 82 1019.0
20260504224020 13 141 4.8 9.7 0.00 0.03 0.00 81 1019.0
20260504223509 13 169 6.4 9.7 0.00 0.03 0.00 81 1019.1
20260504222950 13 144 6.4 11.3 0.00 0.03 0.00 81 1019.0
20260504222449 13 166 6.4 11.3 0.00 0.03 0.00 81 1019.0
20260504221950 13 203 8.0 9.7 0.00 0.03 0.00 81 1019.0
20260504221442 13 166 6.4 11.3 0.00 0.03 0.00 81 1019.1
20260504220949 13 158 8.0 11.3 0.00 0.03 0.00 81 1019.2
20260504220447 13 202 6.4 19.3 0.00 0.03 0.00 81 1019.1
20260504215945 13 175 9.7 19.3 0.00 0.03 0.03 81 1019.0
20260504215442 13 178 9.7 16.1 0.00 0.03 0.03 81 1019.1
20260504214942 13 162 6.4 9.7 0.00 0.03 0.03 80 1019.1
20260504214441 13 179 6.4 11.3 0.00 0.03 0.03 80 1019.1
20260504213942 13 200 6.4 11.3 0.00 0.03 0.03 80 1019.1
20260504213440 13 192 8.0 14.5 0.00 0.03 0.03 80 1019.2
20260504212942 13 182 8.0 14.5 0.00 0.03 0.03 79 1019.3
20260504212441 13 168 6.4 9.7 0.00 0.03 0.03 79 1019.4
20260504211942 13 145 8.0 9.7 0.00 0.03 0.03 78 1019.4
20260504211442 13 162 8.0 9.7 0.00 0.03 0.03 78 1019.4
20260504210941 13 192 6.4 8.0 0.00 0.03 0.03 78 1019.4
20260504210442 13 196 3.2 9.7 0.00 0.03 0.03 78 1019.3
20260504205941 13 137 4.8 9.7 0.00 0.03 0.03 77 1019.2
20260504205441 13 173 6.4 11.3 0.00 0.03 0.03 77 1019.2
20260504204939 13 152 4.8 11.3 0.00 0.03 0.03 77 1019.3
20260504204444 13 142 8.0 11.3 0.00 0.03 0.03 77 1019.3
20260504203941 13 144 6.4 11.3 0.00 0.03 0.03 76 1019.4
20260504203444 13 195 4.8 9.7 0.00 0.03 0.03 76 1019.4
20260504202440 14 210 6.4 11.3 0.00 0.03 0.03 74 1019.3
20260504201440 14 202 4.8 8.0 0.00 0.03 0.03 73 1019.4
20260504200940 14 158 4.8 8.0 0.00 0.03 0.03 73 1019.3
20260504200440 14 180 3.2 4.8 0.00 0.03 0.03 72 1019.4
20260504195943 14 142 3.2 3.2 0.00 0.03 0.03 72 1019.3
20260504195439 14 142 1.6 4.8 0.00 0.03 0.03 72 1019.3
20260504194936 14 230 3.2 4.8 0.00 0.03 0.03 71 1019.2
20260504193934 15 199 4.8 11.3 0.00 0.03 0.03 71 1019.1
20260504192934 15 264 6.4 11.3 0.00 0.03 0.03 71 1019.2
20260504192434 15 166 3.2 14.5 0.00 0.03 0.03 71 1019.1
20260504191933 15 172 6.4 16.1 0.00 0.03 0.03 71 1019.1
20260504191424 15 173 8.0 16.1 0.00 0.03 0.03 70 1019.0
20260504190411 15 130 6.4 14.5 0.00 0.03 0.03 70 1018.9
20260504184406 15 197 8.0 14.5 0.00 0.03 0.03 70 1018.9
20260504183904 15 221 6.4 19.3 0.00 0.03 0.03 70 1018.9
20260504183403 15 206 9.7 19.3 0.00 0.03 0.03 70 1018.9
20260504182405 15 241 1.6 14.5 0.00 0.03 0.03 68 1018.9
20260504181852 15 193 6.4 14.5 0.00 0.03 0.03 67 1019.0
20260504180850 15 293 4.8 16.1 0.00 0.03 0.03 64 1018.9
20260504180351 15 176 9.7 16.1 0.00 0.03 0.03 63 1018.9
20260504175847 15 212 8.0 22.5 0.00 0.03 0.03 61 1018.9
20260504175345 15 214 9.7 22.5 0.00 0.03 0.03 60 1018.7
20260504174842 16 203 12.9 19.3 0.00 0.03 0.03 60 1018.7
20260504174346 16 186 9.7 19.3 0.00 0.03 0.03 60 1018.7
20260504173841 16 206 12.9 19.3 0.00 0.03 0.03 59 1018.7
20260504173345 16 176 6.4 9.7 0.00 0.03 0.03 60 1018.8
20260504172838 16 243 4.8 9.7 0.00 0.03 0.03 59 1018.7
20260504172340 16 247 4.8 14.5 0.00 0.03 0.03 59 1018.6
20260504171837 16 310 3.2 16.1 0.00 0.03 0.03 59 1018.7
20260504171336 16 213 6.4 16.1 0.00 0.03 0.03 60 1018.7
20260504170334 17 204 6.4 16.1 0.00 0.03 0.03 60 1018.8
20260504160309 17 221 4.8 14.5 0.00 0.03 0.03 58 1018.8
20260504150236 17 226 11.3 19.3 0.00 0.03 0.03 58 1019.1
20260504140736 18 168 11.3 27.4 0.00 0.03 0.03 62 1019.1
20260504140234 18 206 14.5 27.4 0.00 0.03 0.03 63 1019.1
20260504130733 18 217 20.9 27.4 0.00 0.03 0.03 61 1019.5
20260504130233 18 175 14.5 24.1 0.00 0.03 0.03 60 1019.5
20260504120232 18 197 17.7 24.1 0.00 0.03 0.03 54 1019.8
20260504110232 18 204 12.9 20.9 0.00 0.03 0.03 58 1020.4
20260504100211 18 212 9.7 19.3 0.00 0.03 0.03 55 1020.7
20260504090140 17 169 6.4 11.3 0.00 0.03 0.03 66 1020.8
20260504081625 15 186 8.0 16.1 0.00 0.03 0.03 73 1021.0
20260504080552 15 206 8.0 14.5 0.00 0.03 0.03 75 1021.0
20260504050338 10 185 9.7 11.3 0.00 0.00 0.00 91 1020.1
20260504045842 10 204 9.7 11.3 0.00 0.00 0.00 90 1020.1